GSAT0103 (GALILEO-FM3)

Last updated on Tue Sep 16 2025 00:02:34 GMT+0000 (Coordinated Universal Time)

1 38857U 12055A 25257.78006037 .00000010 00000+0 00000+0 0 9995 2 38857 55.6352 109.1093 0002035 294.0717 65.9903 1.70473495 80316
UTC large
Height (km)
Speed (km/s)
/
Latitude / Longitude
Inclination (degrees)
Orbital Period (minutes)
Azimuth
Elevation
Range (km)
Doppler Factor

Next 0 passes for location: London (51.5072 / 0.1276)

Sorry there are no passes over London.